CZ-4C DEB, 40113

Orbit data source: Space-Track

CZ-4C DEB, 40113 is space debris in LEO originally from a launch on Sat, 09 Aug 2014 UTC launched from the Jiuquan Satellite Launch Center, China (JSC). Debris objects in space refer to the collection of defunct objects orbiting the Earth. Examples of debris include non-operational satellites, rocket bodies, and fragments generated from explosions, collisions, or faulty payload assembly.

Loading next visibility...
Identifier
40113, 2014-047E
Orbit
LEO
Country
Flag of CNCN / PRC
Related business
Manufacturer
CAST
Mission
Spacecraft
Bus & Motor
Unknown
Mass
Unknown
Launch date (UTC)
2014-08-09 (11 years ago)
Launch vehicle
Unknown
Launch site
Jiuquan Satellite Launch Center, China (JSC)
Object type
Payload
Rocket body
Debris
Shape & HBR
Unknown
Radar Cross Section
8.300 m², Large (>1 m²)

Expand to show TLE details & history
Last TLE update: 8 hours ago

TLE from 8 hours ago
0 CZ-4C DEB
1 40113U 14047E   25243.24849003  .00000020  00000-0  12582-3 0  9994
2 40113  63.3813  66.7807 0367117  14.2166 346.8863 13.44613342542970
Epoch: 2025-08-31T05:57Z
TLE epoch observation values (Epoch: 2025-08-31T05:57:49.538Z)
Latitude
-0.00005°
Longitude
-2.34689°
Altitude
827.336 km
Speed
7.571 km/s
True Right ascension
04h 27m 07s
True Declination
0° 00' 00"
Sunlit
Object was in daylight at epoch
Visualization orbit readout
Latitude
Unknown
Longitude
Unknown
Altitude
Unknown
Speed
Unknown
Apparent Right ascension
Unknown
Apparent Declination
Unknown
Sunlit
N/A
Visualization observer readout
Local Sidereal Time
05:13:56
Azimuth
Unknown
Elevation
Unknown
Doppler factor
Unknown
Orbital elements
Apogee altitude
1,365.177 km
Perigee altitude
816.769 km
Semi-major axis
7,469.11 km
Eccentricity
0.03671
Inclination
63.3813°
RAAN
66.7807°
Arg. of periapsis
14.2166°
True anomaly
345.88732°
Mean anomaly
346.8863°
Eccentric anomaly
346.39139°
Mean motion
3.36233 °/min
Orbital period
107.07 mins
BSTAR
0.00012582
Loading maneuver chart data...
Computing Atmospheric mass density...
Loading historical data...
Loading historical data...
Loading historical data...
Loading historical data...
Loading historical data...
Loading historical data...
Loading historical data...

Documentation

Showing up to 5 results
|